GW0614 Weather Reports


Display with metric or nautical units.
time (UTC)temp
F
wind
direction
speed
MPH
gust
MPH
rain 1hr
in
rain 24hr
in
rain mn
in
humidity
%
barometer
mb
20260503032638 37 40 0.0 0.0 0.00 0.39 0.39 87 1016.1
20260503032137 37 40 0.0 0.0 0.00 0.39 0.39 85 1016.1
20260503031634 37 40 0.0 0.0 0.00 0.39 0.39 85 1016.1
20260503031131 37 40 0.0 0.0 0.00 0.39 0.39 86 1015.9
20260503030627 37 40 0.0 0.0 0.00 0.39 0.39 85 1016.1
20260503030124 38 40 0.0 0.0 0.00 0.39 0.39 83 1016.3
20260503025621 38 40 0.0 0.0 0.00 0.39 0.39 81 1016.2
20260503025119 39 40 0.0 0.0 0.00 0.39 0.39 81 1016.3
20260503024615 39 19 0.0 0.0 0.00 0.39 0.39 80 1016.1
20260503024112 39 340 0.0 0.0 0.00 0.39 0.39 79 1016.2
20260503023609 38 39 0.0 0.0 0.00 0.39 0.39 83 1016.3
20260503023106 39 39 0.0 0.0 0.00 0.39 0.39 81 1016.3
20260503022602 40 35 0.0 0.0 0.00 0.39 0.39 77 1016.4
20260503022056 41 32 0.0 0.0 0.00 0.39 0.39 74 1016.4
20260503021554 41 11 0.0 0.0 0.00 0.39 0.39 74 1016.3
20260503021051 42 10 0.0 0.0 0.00 0.39 0.39 70 1016.2
20260503020548 42 10 0.0 0.0 0.00 0.39 0.39 69 1016.5
20260503020045 42 11 0.0 0.0 0.00 0.39 0.39 71 1016.4
20260503015541 42 39 0.0 0.0 0.00 0.39 0.39 71 1016.4
20260503015039 43 36 0.0 0.0 0.00 0.39 0.39 74 1016.5
20260503014535 43 19 0.0 0.0 0.00 0.39 0.39 67 1016.2
20260503014033 42 55 0.0 0.0 0.00 0.39 0.39 67 1016.2
20260503013530 43 15 0.0 0.0 0.00 0.39 0.39 69 1016.2
20260503013027 43 23 0.0 0.0 0.00 0.39 0.39 69 1016.5
20260503012525 43 23 0.0 0.0 0.00 0.39 0.39 68 1016.2
20260503012021 44 46 0.0 0.0 0.00 0.39 0.39 64 1016.1
20260503011517 44 35 0.0 0.0 0.00 0.39 0.39 64 1016.2
20260503011015 44 35 0.0 0.0 0.00 0.39 0.39 61 1016.0
20260503010511 44 347 0.0 0.0 0.00 0.39 0.39 66 1015.8
20260503010009 45 21 0.0 0.0 0.00 0.39 0.39 72 1015.7
20260503005506 46 21 0.0 0.0 0.00 0.39 0.39 62 1015.9
20260503005003 46 15 0.0 0.0 0.00 0.39 0.39 61 1015.9
20260503004459 46 340 0.0 0.0 0.00 0.39 0.39 60 1015.7
20260503003957 46 28 0.0 0.0 0.00 0.39 0.39 59 1015.7
20260503003453 46 341 0.0 0.0 0.00 0.39 0.39 59 1015.8
20260503002950 47 20 0.0 0.0 0.00 0.39 0.39 61 1015.5
20260503002447 47 2 0.0 0.0 0.00 0.39 0.39 60 1015.7
20260503001943 47 17 0.0 0.0 0.00 0.39 0.39 60 1015.6
20260503001441 48 350 0.0 0.0 0.00 0.39 0.39 58 1015.4
20260503000938 48 17 0.0 0.0 0.00 0.39 0.39 57 1015.5
20260503000437 48 8 0.0 0.0 0.00 0.39 0.39 58 1015.4
20260502235932 48 340 0.0 0.0 0.00 0.39 0.39 58 1015.5
20260502235429 48 341 1.0 2.0 0.00 0.39 0.39 54 1015.5
20260502234927 48 11 0.0 0.0 0.00 0.39 0.39 55 1015.5
20260502234423 49 344 0.0 0.0 0.00 0.39 0.39 56 1015.4
20260502233920 49 18 0.0 0.0 0.00 0.39 0.39 57 1015.1
20260502233415 49 2 0.0 0.0 0.00 0.39 0.39 56 1015.4
20260502232913 48 352 0.0 0.0 0.00 0.39 0.39 57 1015.0
20260502232409 49 350 0.0 0.0 0.00 0.39 0.39 59 1014.9
20260502231906 49 352 0.0 0.0 0.00 0.39 0.39 54 1014.8
20260502231403 50 357 0.0 0.0 0.00 0.39 0.39 54 1015.0
20260502230901 50 17 0.0 0.0 0.00 0.39 0.39 52 1015.0
20260502230359 50 335 0.0 1.0 0.00 0.39 0.39 52 1014.9
20260502225856 50 352 0.0 0.0 0.00 0.39 0.39 52 1014.8
20260502225352 51 26 2.0 2.0 0.00 0.39 0.39 50 1014.8
20260502224850 51 324 1.0 2.0 0.00 0.39 0.39 52 1014.7
20260502224345 51 350 2.0 3.0 0.00 0.39 0.39 51 1014.6
20260502223843 51 4 0.0 0.0 0.00 0.39 0.39 52 1014.4
20260502223341 51 16 0.0 0.0 0.00 0.39 0.39 53 1014.5
20260502222838 52 42 0.0 1.0 0.00 0.39 0.39 48 1014.7
20260502222336 52 337 0.0 0.0 0.00 0.39 0.39 53 1014.3
20260502221831 52 350 0.0 0.0 0.00 0.39 0.39 52 1014.4
20260502221328 52 7 0.0 0.0 0.00 0.39 0.39 55 1014.4
20260502220825 52 338 1.0 2.0 0.00 0.39 0.39 50 1014.2
20260502220321 52 340 0.0 0.0 0.00 0.39 0.39 54 1014.3
20260502215818 53 64 3.0 5.0 0.00 0.39 0.39 48 1014.5
20260502215315 53 337 1.0 2.0 0.00 0.39 0.39 51 1014.3
20260502214812 53 346 0.0 0.0 0.00 0.39 0.39 48 1014.2
20260502214308 53 335 1.0 2.0 0.00 0.39 0.39 48 1014.4
20260502213806 54 326 3.0 3.0 0.00 0.39 0.39 50 1014.2
20260502213303 53 346 0.0 0.0 0.00 0.39 0.39 49 1014.1
20260502212802 53 210 0.0 0.0 0.00 0.39 0.39 49 1014.1
20260502212300 53 339 0.0 0.0 0.00 0.39 0.39 51 1014.0
20260502211755 53 346 0.0 0.0 0.00 0.39 0.39 49 1014.1
20260502211252 53 345 0.0 0.0 0.00 0.39 0.39 49 1014.0
20260502210749 53 354 3.0 3.0 0.00 0.39 0.39 48 1014.2
20260502210247 53 346 0.0 0.0 0.00 0.39 0.39 47 1014.1
20260502205744 54 319 1.0 2.0 0.00 0.39 0.39 51 1014.1
20260502205240 55 314 2.0 2.0 0.00 0.39 0.39 47 1013.9
20260502204738 54 299 2.0 5.0 0.00 0.39 0.39 51 1014.1
20260502204234 54 300 6.0 7.0 0.00 0.39 0.39 50 1014.0
20260502203732 54 338 3.0 5.0 0.00 0.39 0.39 52 1014.1
20260502203230 54 1 0.0 1.0 0.00 0.39 0.39 51 1014.0
20260502202724 54 341 3.0 5.0 0.00 0.39 0.39 47 1014.1
20260502202223 55 318 4.0 5.0 0.00 0.39 0.39 49 1014.0
20260502201720 57 306 4.0 5.0 0.00 0.39 0.39 46 1014.0
20260502201216 57 4 2.0 2.0 0.00 0.39 0.39 45 1014.0
20260502200712 59 310 3.0 3.0 0.00 0.39 0.39 42 1014.2
20260502200208 58 279 2.0 5.0 0.00 0.39 0.39 46 1014.2
20260502195707 56 345 1.0 1.0 0.00 0.39 0.39 53 1014.0
20260502195203 57 324 2.0 3.0 0.00 0.39 0.39 48 1014.2
20260502194700 56 337 1.0 2.0 0.00 0.39 0.39 51 1014.3
20260502194156 56 338 0.0 1.0 0.00 0.39 0.39 47 1014.3
20260502193653 58 353 4.0 5.0 0.00 0.39 0.39 47 1014.2
20260502193150 59 344 0.0 0.0 0.00 0.39 0.39 45 1014.6
20260502192645 59 348 3.0 5.0 0.00 0.39 0.39 47 1014.5
20260502192143 58 346 0.0 0.0 0.00 0.39 0.39 50 1014.4
20260502191639 58 146 0.0 1.0 0.00 0.39 0.39 50 1014.5
20260502191137 58 17 3.0 5.0 0.00 0.39 0.39 48 1014.5
20260502190634 57 312 6.0 8.0 0.00 0.39 0.39 48 1014.6
20260502190132 56 115 1.0 1.0 0.00 0.39 0.39 60 1014.5
20260502185626 56 343 1.0 2.0 0.00 0.39 0.39 52 1014.5
20260502185124 55 353 0.0 0.0 0.00 0.39 0.39 57 1014.5
20260502184620 54 332 0.0 0.0 0.00 0.39 0.39 58 1014.6
20260502184115 54 8 1.0 2.0 0.00 0.39 0.39 55 1014.8
20260502183612 55 307 3.0 5.0 0.00 0.39 0.39 54 1014.7
20260502183108 55 357 0.0 2.0 0.00 0.39 0.39 56 1014.7
20260502182603 55 354 0.0 0.0 0.00 0.39 0.39 55 1014.5
20260502182059 56 344 0.0 0.0 0.00 0.39 0.39 54 1014.7
20260502181557 54 51 1.0 2.0 0.00 0.39 0.39 57 1014.4
20260502181056 55 348 1.0 1.0 0.00 0.39 0.39 61 1014.4
20260502180553 55 11 2.0 2.0 0.00 0.39 0.39 59 1014.5
20260502170512 54 316 3.0 5.0 0.00 0.39 0.39 61 1015.1
20260502163955 52 341 3.0 5.0 0.00 0.39 0.39 67 1015.2
20260502163451 53 54 1.0 1.0 0.00 0.39 0.39 66 1015.2
20260502162949 53 51 0.0 0.0 0.00 0.39 0.39 69 1015.5
20260502162445 52 34 0.0 0.0 0.00 0.39 0.39 73 1015.5
20260502161943 51 352 0.0 0.0 0.00 0.39 0.39 73 1015.7
20260502161439 51 350 0.0 0.0 0.00 0.39 0.39 69 1015.6
20260502160937 53 328 3.0 3.0 0.00 0.39 0.39 71 1015.9
20260502160435 55 309 3.0 3.0 0.00 0.39 0.39 64 1015.6
20260502151913 50 319 4.0 5.0 0.00 0.39 0.39 75 1016.0
20260502151409 50 344 3.0 3.0 0.00 0.39 0.39 75 1015.9
20260502150907 50 328 2.0 2.0 0.00 0.39 0.39 78 1016.0
20260502150403 50 333 1.0 2.0 0.00 0.39 0.39 77 1015.8
20260502130249 44 34 1.0 2.0 0.00 0.39 0.39 99 1016.3
20260502123735 42 339 1.0 1.0 0.00 0.39 0.39 99 1016.2
20260502123231 42 305 1.0 3.0 0.05 0.39 0.39 99 1016.4
20260502122728 42 2 0.0 0.0 0.05 0.39 0.39 99 1016.3
20260502122224 42 22 0.0 0.0 0.00 0.38 0.38 99 1016.2
20260502121723 42 34 1.0 2.0 0.00 0.38 0.38 99 1016.1
20260502121220 43 341 2.0 2.0 0.00 0.38 0.38 99 1015.9
20260502120716 43 348 1.0 1.0 0.00 0.38 0.38 99 1016.0
20260502120213 43 347 0.0 0.0 0.00 0.38 0.38 99 1016.1
20260502115711 43 350 0.0 0.0 0.00 0.38 0.38 99 1015.8
20260502115208 44 358 0.0 0.0 0.07 0.38 0.38 99 1015.7
20260502114703 44 341 0.0 0.0 0.12 0.38 0.38 99 1016.1
20260502114201 45 2 1.0 1.0 0.05 0.37 0.37 99 1015.6
20260502113658 45 47 0.0 0.0 0.07 0.36 0.36 99 1015.6
20260502113156 45 47 0.0 0.0 0.07 0.36 0.36 99 1015.8
20260502112654 46 39 0.0 0.0 0.00 0.35 0.35 99 1015.6
20260502112151 46 39 0.0 0.0 0.00 0.35 0.35 99 1015.5
20260502111648 46 39 0.0 0.0 0.05 0.35 0.35 99 1015.4
20260502111145 46 39 0.0 0.0 0.12 0.35 0.35 99 1015.4
20260502110643 46 39 0.0 0.0 0.07 0.34 0.34 99 1015.4
20260502110140 46 39 0.0 0.0 0.00 0.33 0.33 99 1015.2
20260502105638 46 39 0.0 0.0 0.00 0.33 0.33 99 1015.1
20260502105135 45 39 0.0 0.0 0.00 0.33 0.33 99 1015.5
20260502104632 45 39 0.0 0.0 0.00 0.33 0.33 99 1015.0
20260502104129 45 39 0.0 0.0 0.00 0.33 0.33 99 1014.9
20260502103627 45 39 0.0 0.0 0.00 0.33 0.33 99 1014.8
20260502103125 45 39 0.0 0.0 0.00 0.33 0.33 99 1014.9
20260502102621 45 39 0.0 0.0 0.00 0.33 0.33 99 1014.7
20260502102118 45 39 0.0 0.0 0.00 0.33 0.33 99 1014.9
20260502101616 45 39 0.0 0.0 0.00 0.33 0.33 99 1014.8
20260502101114 45 38 0.0 0.0 0.00 0.33 0.33 99 1014.6
20260502100613 45 39 0.0 0.0 0.00 0.33 0.33 99 1014.5
20260502100110 45 39 0.0 0.0 0.00 0.33 0.33 99 1014.7
20260502091044 45 38 0.0 0.0 0.00 0.31 0.31 99 1014.3
20260502090541 45 38 0.0 0.0 0.00 0.31 0.31 99 1014.1
20260502071435 45 46 0.0 0.0 0.19 0.23 0.23 99 1015.0
20260502070933 45 49 0.0 0.0 0.12 0.22 0.22 99 1014.8
20260502070431 45 46 0.0 0.0 0.07 0.20 0.20 99 1015.0
20260502065930 45 42 0.0 0.0 0.12 0.20 0.20 99 1014.7
20260502065428 45 43 0.0 0.0 0.05 0.19 0.19 99 1014.7
20260502064926 45 42 0.0 0.0 0.07 0.18 0.18 99 1014.9
20260502064423 45 42 0.0 0.0 0.19 0.18 0.18 99 1015.0
20260502063920 45 42 0.0 0.0 0.17 0.17 0.17 99 1014.9
20260502063418 45 25 0.0 0.0 0.12 0.15 0.15 99 1014.9
20260502062915 45 353 0.0 0.0 0.19 0.14 0.14 99 1014.7
20260502062412 45 353 0.0 0.0 0.17 0.13 0.13 99 1014.9
20260502061911 45 353 0.0 0.0 0.05 0.11 0.11 99 1015.0
20260502061409 45 352 0.0 0.0 0.07 0.10 0.10 99 1015.2
20260502060904 46 352 0.0 0.0 0.12 0.10 0.10 99 1015.0
20260502060359 45 352 0.0 0.0 0.14 0.08 0.08 99 1014.7
20260502055857 45 352 0.0 0.0 0.19 0.08 0.08 99 1015.2
20260502055354 46 350 0.0 0.0 0.12 0.06 0.06 99 1015.2
20260502054854 46 350 0.0 0.0 0.12 0.05 0.05 99 1015.1
20260502054351 46 350 0.0 0.0 0.12 0.04 0.04 99 1014.9
20260502053849 46 350 0.0 0.0 0.07 0.03 0.03 99 1015.4
20260502053345 46 350 0.0 0.0 0.00 0.02 0.02 99 1015.1
20260502052843 46 350 0.0 0.0 0.00 0.02 0.02 99 1015.1
20260502052341 45 350 0.0 0.0 0.00 0.02 0.02 99 1015.1
20260502051839 45 335 0.0 0.0 0.00 0.02 0.02 99 1014.9
20260502051337 46 336 0.0 0.0 0.00 0.02 0.02 99 1014.8
20260502050833 45 328 0.0 0.0 0.00 0.02 0.02 99 1014.9
20260502050330 46 288 2.0 2.0 0.00 0.02 0.02 99 1015.0
20260502045827 46 65 0.0 0.0 0.00 0.02 0.02 99 1015.2
20260502045323 46 65 0.0 0.0 0.00 0.02 0.02 99 1015.6
20260502044821 46 65 0.0 0.0 0.00 0.02 0.02 99 1015.9
20260502044317 46 65 0.0 0.0 0.05 0.02 0.02 99 1015.5
20260502043814 46 65 0.0 0.0 0.05 0.02 0.02 99 1015.4
20260502043311 46 65 0.0 0.0 0.00 0.01 0.01 99 1015.7
20260502042811 46 65 0.0 0.0 0.07 0.01 0.01 99 1015.5
20260502042309 46 65 0.0 0.0 0.07 0.01 0.01 99 1015.5
20260502041806 46 64 0.0 0.0 0.00 0.00 0.00 99 1015.4
20260502041303 46 64 0.0 0.0 0.00 0.00 0.00 99 1015.6
20260502040800 46 64 0.0 0.0 0.05 0.00 0.00 99 1015.7
20260502040257 46 64 0.0 0.0 0.05 0.00 0.00 99 1015.8
20260502035753 46 64 0.0 0.0 0.07 0.02 0.02 99 1015.5
20260502035250 46 64 0.0 0.0 0.07 0.02 0.02 99 1015.5
20260502034747 46 64 0.0 0.0 0.00 0.01 0.01 99 1015.6
20260502034245 46 64 0.0 0.0 0.00 0.01 0.01 99 1015.5
20260502033743 46 64 0.0 0.0 0.00 0.01 0.01 99 1015.6
20260502033241 46 64 0.0 0.0 0.00 0.01 0.01 98 1015.5